[[{"header":{"parameterUnit":"m.s-1","parameterCategory":1,"la1":30.2991,"la2":30.254,"lo1":-89.0895,"lo2":-89.0444,"dy":0.0017,"dx":0.0017,"nx":28,"ny":28,"refTime":"2023-09-04T09:00:00:Z","depth":0,"parameterNumber":2,"parameterNumberName":"U-component_of_WINDS"},"data":[0,0,0,0,0,0,0,0,0,0,0,0,0,0,0,0,0,0,0,0,0,0,0,0,0,0,0,0,0,0,0,0,0,0,0,0,0,0,0,0,0,0,0,0,0,0,0,0,0,0,0,0,0,0,0,0,0,0,-3.901,-3.9011,0,-3.9078,-3.9079,-3.908,-3.9034,-3.9032,-3.903,-3.9028,-3.9096,-3.9099,-3.9103,0,0,0,0,0,0,0,0,0,0,0,0,0,-3.8837,-3.8841,-3.901,-3.9011,-3.9012,-3.9078,-3.9079,-3.908,-3.9034,-3.9032,-3.9029,-3.9027,-3.9094,-3.9099,-3.9103,0,0,0,0,0,0,0,0,0,0,0,0,0,-3.891,-3.8842,-3.901,-3.8997,-3.8996,-3.9078,-3.9079,-3.908,-3.9035,-3.9032,-3.9028,-3.9025,-3.9093,-3.9099,-3.9104,-3.9202,0,0,-3.9121,-3.9124,0,0,0,0,0,0,0,0,-3.8906,-3.8916,-3.8998,-3.8998,-3.8998,-3.9044,-3.9043,-3.9121,-3.9036,-3.902,-3.9028,-3.9024,-3.9081,-3.9087,-3.9107,-3.9205,-3.9208,-3.9122,-3.9125,-3.9128,-3.9129,0,0,0,0,0,0,0,-3.8901,-3.8913,-3.9037,-3.8999,-3.8999,-3.8987,-3.8994,-3.9058,-3.9067,-3.9021,-3.9018,-3.9027,-3.908,-3.9102,-3.9108,-3.9209,-3.9122,-3.9127,-3.913,-3.9132,-3.9388,-3.9391,0,0,0,0,0,0,-3.8897,-3.8909,-3.9035,-3.9039,-3.8943,-3.8993,-3.9,-3.9032,-3.9066,-3.9069,-3.9029,-3.9024,-3.9094,-3.9102,-3.9111,-3.9225,-3.9128,-3.9133,-3.9136,-3.9384,-3.9388,-3.9392,0,0,0,0,0,0,-3.8894,-3.8909,-3.9032,-3.8973,-3.8988,-3.8999,-3.9036,-3.9035,-3.9057,-3.9073,-3.9074,-3.905,-3.9092,-3.9103,-3.9179,-3.9227,-3.9135,-3.9141,-3.938,-3.9385,-3.939,-3.9456,0,0,0,0,0,0,-3.8889,-3.8908,-3.8946,-3.8974,-3.8991,-3.91,-3.9039,-3.9039,-3.9067,-3.9061,-3.9092,-3.9094,-3.909,-3.9171,-3.9185,-3.9233,-3.9145,-3.9376,-3.9383,-3.9389,-3.9449,-3.9463,-3.9474,0,0,0,0,0,-3.8883,-3.8962,-3.8948,-3.8963,-3.9039,-3.9103,-3.9113,-3.9107,-3.9071,-3.9108,-3.9118,-3.9093,-3.922,-3.9179,-3.9194,-3.9245,-3.9373,-3.9381,-3.9388,-3.9444,-3.946,-3.9474,0,0,0,0,0,0,-3.8938,-3.8965,-3.895,-3.9041,-3.907,-3.9095,-3.9142,-3.9124,-3.9164,-3.9156,-3.9147,-3.9154,-3.9234,-3.9247,-3.9201,-3.934,-3.9291,-3.9302,-3.9328,-3.9343,-3.9355,-3.9349,-3.915,0,0,0,0,0,-3.8961,-3.9011,-3.9032,-3.911,-3.9125,-3.9132,-3.9159,-3.9152,-3.9182,-3.9194,-3.9209,-3.9238,-3.9284,-3.9315,-3.9359,-3.9452,-3.9457,-3.9494,-3.9506,-3.9516,-3.9525,-3.9573,-3.9589,-3.9417,-3.9417,-3.9417,0,0,-3.9008,-3.9029,-3.9061,-3.9121,-3.9143,-3.9194,-3.9142,-3.9199,-3.9236,-3.9202,-3.9274,-3.9287,-3.9319,-3.9404,-3.9442,-3.9417,-3.9574,-3.9526,-3.9534,-3.9537,-3.9583,-3.9599,-3.9614,-3.9422,-3.9421,-3.9421,0,0,-3.9119,-3.9142,-3.9208,-3.9231,-3.9264,-3.9268,-3.9284,-3.9312,-3.9319,-3.9392,-3.9366,-3.9411,-3.9491,-3.9514,-3.9536,-3.9656,-3.9633,-3.9671,-3.9734,-3.9781,-3.9794,-3.9806,-3.9846,-3.9861,-3.968,-3.968,-3.968,0,-3.9173,-3.925,-3.9244,-3.9302,-3.9328,-3.93,-3.9366,-3.9389,-3.9435,-3.9453,-3.9426,-3.9525,-3.9544,-3.9633,-3.9662,-3.9682,-3.9698,-3.9666,-3.9793,-3.9805,-3.9816,-3.9854,-3.987,-3.9684,-3.9684,-3.9684,-3.9683,0,-3.9314,-3.9368,-3.9417,-3.9462,-3.9494,-3.9556,-3.9558,-3.9591,-3.9581,-3.9587,-3.9661,-3.9684,-3.973,-3.9751,-3.9743,-3.9838,-3.9822,-3.9794,-3.9744,-3.9836,-3.9872,-3.9887,-3.969,-3.9689,-3.9688,-3.9687,0,0,-3.9461,-3.9501,-3.9519,-3.9539,-3.9574,-3.9614,-3.9675,-3.9721,-3.9748,-3.9781,-3.983,-3.9899,-3.9873,-3.9898,-3.9891,-3.9933,-4.0024,-3.99,-3.99,-3.992,-4.0128,-4.0147,-4.0164,-4.001,-4.0013,-4.0015,-4.0124,0,-3.9573,-3.9678,-3.9673,-3.9771,-3.9819,-3.9793,-3.9845,-3.9872,-3.9879,-3.9921,-3.9929,-3.9976,-3.994,-3.9954,-3.9995,-4.0004,-4.0065,-3.9997,-4.0053,-4.0055,-4.0043,-4.0183,-4.0203,-4.0305,-4.0138,-4.0141,-4.0143,0,-3.9717,-3.9754,-3.9857,-3.9883,-3.9903,-3.995,-3.9991,-4.0031,-4.006,-4.0063,-4.0091,-4.0077,-4.0137,-4.0087,-4.0168,-4.0121,-4.0144,-4.0153,-4.0156,-4.0159,-4.0103,-4.0187,-4.0338,-4.0352,-4.0165,-4.0163,-4.0162,0,-3.9811,-3.9887,-3.9957,-3.9975,-4.0008,-4.0041,-4.0057,-4.0083,-4.011,-4.0146,-4.0163,-4.0206,-4.0228,-4.0261,-4.0258,-4.0223,-4.034,-4.029,-4.0341,-4.0341,-4.0365,-4.0363,-4.0519,-4.0385,-4.0385,-4.0384,-4.0384,0,-3.9935,-3.9998,-4.0,-4.0043,-4.0112,-4.0106,-4.0175,-4.0187,-4.021,-4.0254,-4.0235,-4.0276,-4.0272,-4.0314,-4.0313,-4.0378,-4.039,-4.0392,-4.039,-4.0392,-4.0391,-4.0405,-4.0397,-4.0388,-4.0387,-4.0387,-4.0386,0,-4.005,-4.0055,-4.0129,-4.0154,-4.0162,-4.0212,-4.0233,-4.0273,-4.0279,-4.0335,-4.0347,-4.0356,-4.0404,-4.0406,-4.0461,-4.046,-4.0539,-4.0531,-4.053,-4.0527,-4.0577,-4.0572,-4.0746,-4.0767,-4.0621,-4.0622,-4.0624,0,-4.0128,-4.0176,-4.0206,-4.0234,-4.0251,-4.0297,-4.0324,-4.032,-4.035,-4.0386,-4.0421,-4.0468,-4.0504,-4.0582,-4.0592,-4.0634,-4.0625,-4.0683,-4.0631,-4.0631,-4.0623,-4.0619,-4.0623,-4.0693,-4.0694,-4.0696,-4.0697,0,-4.0264,-4.0264,-4.0305,-4.0346,-4.0379,-4.0412,-4.0442,-4.0466,-4.0465,-4.0499,-4.0547,-4.0576,-4.0632,-4.0677,-4.0717,-4.0732,-4.0714,-4.0713,-4.0727,-4.0728,-4.0724,-4.0724,-4.0554,-4.0709,-4.0707,-4.0707,-4.0706,-4.0705,-4.0362,-4.0402,-4.0429,-4.0474,-4.0497,-4.0525,-4.0563,-4.0574,-4.0614,-4.0659,-4.0655,-4.0708,-4.0735,-4.0787,-4.0805,-4.0846,-4.0826,-4.0846,-4.0851,-4.0855,-4.0859,-4.072,-4.0854,-4.0853,-4.0853,-4.0853,-4.0852,0,-4.0495,-4.0511,-4.0553,-4.0595,-4.063,-4.0611,-4.0643,-4.0673,-4.0721,-4.0747,-4.0783,-4.0838,-4.0882,-4.0896,-4.0938,-4.0968,-4.0961,-4.0979,-4.0976,-4.0979,-4.0876,-4.0859,-4.0984,-4.0984,-4.0984,-4.0984,-4.0984,-4.0984,-4.0568,-4.0635,-4.0637,-4.0714,-4.0729,-4.0782,-4.0801,-4.0826,-4.0847,-4.0909,-4.0945,-4.0955,-4.0976,-4.1019,-4.1057,-4.106,-4.1076,-4.1097,-4.1096,-4.1,-4.0986,-4.0974,-4.0957,-4.1101,-4.1101,-4.1195,-4.1196,-4.1196]},{"header":{"parameterUnit":"m.s-1","parameterCategory":1,"la1":30.2991,"la2":30.254,"lo1":-89.0895,"lo2":-89.0444,"dy":0.0017,"dx":0.0017,"nx":28,"ny":28,"refTime":"2023-09-04T09:00:00:Z","depth":0,"parameterNumber":3,"parameterNumberName":"V-component_of_WINDS"},"data":[0,0,0,0,0,0,0,0,0,0,0,0,0,0,0,0,0,0,0,0,0,0,0,0,0,0,0,0,0,0,0,0,0,0,0,0,0,0,0,0,0,0,0,0,0,0,0,0,0,0,0,0,0,0,0,0,0,0,4.2777,4.2777,0,4.2835,4.2836,4.2836,4.279,4.2788,4.2786,4.2784,4.2843,4.2846,4.285,0,0,0,0,0,0,0,0,0,0,0,0,0,4.2624,4.2628,4.2777,4.2777,4.2778,4.2835,4.2836,4.2836,4.2791,4.2788,4.2786,4.2783,4.2842,4.2846,4.285,0,0,0,0,0,0,0,0,0,0,0,0,0,4.2687,4.2629,4.2777,4.2762,4.2761,4.2835,4.2836,4.2837,4.2791,4.2788,4.2785,4.2782,4.2841,4.2846,4.2851,4.2941,0,0,4.2866,4.2868,0,0,0,0,0,0,0,0,4.2684,4.2693,4.2763,4.2763,4.2763,4.2802,4.2803,4.2872,4.2792,4.278,4.2784,4.2781,4.2832,4.2838,4.2855,4.2944,4.2946,4.2867,4.287,4.2872,4.2873,0,0,0,0,0,0,0,4.268,4.269,4.28,4.2765,4.2764,4.2752,4.2758,4.2816,4.2822,4.2781,4.2777,4.2785,4.2831,4.285,4.2856,4.2947,4.2867,4.2871,4.2874,4.2876,4.3112,4.3115,0,0,0,0,0,0,4.2677,4.2687,4.2798,4.2801,4.2715,4.2757,4.2764,4.2792,4.2821,4.2822,4.2787,4.2783,4.2843,4.285,4.2858,4.2964,4.2872,4.2877,4.288,4.3108,4.3112,4.3116,0,0,0,0,0,0,4.2674,4.2687,4.2795,4.2743,4.2756,4.2763,4.2796,4.2795,4.2814,4.2826,4.2827,4.2806,4.2841,4.2851,4.292,4.2965,4.2879,4.2884,4.3105,4.311,4.3114,4.3178,0,0,0,0,0,0,4.267,4.2686,4.2721,4.2745,4.2759,4.2858,4.2799,4.2798,4.2823,4.2817,4.2844,4.2845,4.2839,4.2913,4.2926,4.2971,4.2888,4.3101,4.3107,4.3113,4.3172,4.3184,4.3195,0,0,0,0,0,4.2664,4.2737,4.2723,4.2737,4.2803,4.286,4.2869,4.2861,4.2827,4.2861,4.2869,4.2844,4.2959,4.2921,4.2934,4.2982,4.3098,4.3105,4.3112,4.3166,4.3182,4.3194,0,0,0,0,0,0,4.2718,4.274,4.2725,4.2807,4.2832,4.2852,4.2896,4.2877,4.2913,4.2906,4.2894,4.2901,4.2973,4.2985,4.2942,4.307,4.3023,4.3033,4.3059,4.3074,4.3085,4.308,4.2892,0,0,0,0,0,4.274,4.2785,4.2801,4.2872,4.2886,4.2889,4.2914,4.2905,4.2931,4.2941,4.2954,4.2979,4.3021,4.3048,4.3088,4.3174,4.3178,4.3213,4.3225,4.3234,4.3242,4.3287,4.3302,4.3139,4.3139,4.3139,0,0,4.2785,4.2802,4.2831,4.2884,4.2902,4.2948,4.2898,4.295,4.2983,4.2949,4.3015,4.3026,4.3053,4.3131,4.3166,4.3143,4.3289,4.3243,4.3251,4.3254,4.3296,4.3311,4.3325,4.3144,4.3143,4.3143,0,0,4.289,4.2908,4.2968,4.2988,4.3017,4.3018,4.3033,4.3056,4.3061,4.3128,4.3102,4.3143,4.3215,4.3235,4.3255,4.3368,4.3345,4.3381,4.344,4.3484,4.3497,4.3508,4.3546,4.356,4.339,4.339,4.339,0,4.2941,4.301,4.3002,4.3055,4.3078,4.3049,4.3109,4.3129,4.3169,4.3185,4.3159,4.3249,4.3265,4.3347,4.3374,4.3392,4.3407,4.3377,4.3496,4.3507,4.3517,4.3554,4.3568,4.3394,4.3393,4.3393,4.3392,0,4.3072,4.312,4.3165,4.3204,4.3233,4.3289,4.3288,4.3319,4.3308,4.3312,4.338,4.3399,4.3441,4.346,4.345,4.354,4.3524,4.3498,4.3449,4.3537,4.3571,4.3585,4.3399,4.3398,4.3397,4.3396,0,0,4.3211,4.3244,4.3261,4.3277,4.3307,4.3344,4.3399,4.344,4.3465,4.3494,4.3539,4.3601,4.3576,4.3598,4.3591,4.363,4.3715,4.3598,4.3598,4.3617,4.3812,4.3831,4.3847,4.3702,4.3704,4.3706,4.3809,0,4.3315,4.341,4.3404,4.3494,4.3537,4.3511,4.3558,4.3581,4.3587,4.3624,4.3631,4.3674,4.3639,4.3652,4.3689,4.3697,4.3754,4.369,4.3741,4.3743,4.3733,4.3865,4.3885,4.3981,4.3823,4.3825,4.3827,0,4.3449,4.3482,4.3576,4.3598,4.3616,4.3659,4.3695,4.3732,4.3757,4.3758,4.3784,4.377,4.3824,4.3777,4.3852,4.3808,4.3829,4.3836,4.384,4.3842,4.3789,4.3869,4.4012,4.4025,4.3848,4.3846,4.3845,0,4.3539,4.3607,4.3671,4.3686,4.3714,4.3744,4.3757,4.378,4.3805,4.3837,4.3852,4.3891,4.3911,4.3941,4.3937,4.3904,4.4013,4.3965,4.4014,4.4014,4.4036,4.4034,4.4182,4.4054,4.4054,4.4053,4.4053,0,4.3654,4.3712,4.3711,4.375,4.3814,4.3806,4.387,4.3879,4.3899,4.394,4.392,4.3958,4.3953,4.3991,4.3989,4.405,4.406,4.4061,4.406,4.4062,4.4061,4.4074,4.4066,4.4057,4.4056,4.4056,4.4055,0,4.3764,4.3766,4.3834,4.3854,4.3861,4.3907,4.3924,4.3961,4.3965,4.4016,4.4028,4.4034,4.4078,4.4078,4.4129,4.4127,4.4201,4.4193,4.4192,4.419,4.4237,4.4232,4.4396,4.4417,4.4278,4.4279,4.428,0,4.3837,4.388,4.3905,4.3931,4.3945,4.3987,4.4012,4.4006,4.4033,4.4065,4.4097,4.414,4.4172,4.4244,4.4253,4.4291,4.4282,4.4337,4.4288,4.4288,4.428,4.4277,4.428,4.4346,4.4348,4.4349,4.435,0,4.3964,4.3963,4.3999,4.4036,4.4066,4.4095,4.4121,4.4144,4.4141,4.4172,4.4216,4.4242,4.4293,4.4334,4.4371,4.4384,4.4366,4.4366,4.4379,4.438,4.4377,4.4377,4.4216,4.4361,4.436,4.4359,4.4359,4.4358,4.4056,4.4093,4.4116,4.4157,4.4176,4.4201,4.4236,4.4245,4.4282,4.4322,4.4317,4.4366,4.439,4.4438,4.4454,4.4492,4.4473,4.4492,4.4496,4.4501,4.4505,4.4373,4.4499,4.4499,4.4498,4.4498,4.4498,0,4.4181,4.4194,4.4232,4.4269,4.4301,4.4283,4.4311,4.4339,4.4382,4.4406,4.4439,4.4489,4.4529,4.4542,4.458,4.4608,4.4601,4.4618,4.4615,4.4618,4.4521,4.4505,4.4624,4.4623,4.4623,4.4623,4.4623,4.4623,4.425,4.431,4.4311,4.4381,4.4394,4.4442,4.4459,4.4482,4.4501,4.4558,4.4591,4.4599,4.4618,4.4657,4.4693,4.4696,4.471,4.473,4.4729,4.4638,4.4625,4.4613,4.4598,4.4734,4.4734,4.4823,4.4824,4.4824]}]]